Pittsburgh Allegheny Co., PA

1:22 AM EDT on June 28, 2017 (GMT -0400)
Allegheny County

Weather History for KAGC - February, 2013

Change the Weather History Date:

Tuesday, February 26, 2013

  Actual Average Record
Temperature  
Mean Temperature 34 °F -  
Max Temperature 39 °F 40 °F 52 °F (1992)
Min Temperature 30 °F 22 °F 5 °F (1993)
Degree Days  
Heating Degree Days 30    
Moisture  
Dew Point 29 °F    
Average Humidity 80    
Maximum Humidity 100    
Minimum Humidity 50    
Precipitation  
Precipitation 0.75 in - - ()
Sea Level Pressure  
Sea Level Pressure 29.79 in    
Wind  
Wind Speed 9 mph (East)    
Max Wind Speed 18 mph    
Max Gust Speed 24 mph    
Visibility 8 miles    
Events Rain    
Averages and records for this station are not official NWS values.
T = Trace of Precipitation, MM = Missing Value Source: NWS Daily Summary

Daily Weather History Graph

Daily Weather History Graph

Search for Another Location

Airport or City:

Trip Planner

Search our weather history database for the weather conditions in past years. The results will help you decide how hot, cold, wet, or windy it might be!

Date:

Astronomy

Feb. 26, 2013 Rise Set
Actual Time 6:57 AM EST 6:08 PM EST
Civil Twilight 6:30 AM EST 6:35 PM EST
Nautical Twilight 5:58 AM EST 7:07 PM EST
Astronomical Twilight 5:27 AM EST 7:38 PM EST
Moon 7:23 PM EST (2/26) 6:58 AM EST (2/26)
Length of Visible Light 12h 05m
Length of Day
11h 10m
Full, 99% of the Moon is Illuminated
Feb 26
Full
Mar 4
Last Quarter
Mar 11
New
Mar 19
First Quarter
Mar 27
Full

Hourly Weather History & Observations

Time (EST) Temp. Windchill Dew Point Humidity Pressure Visibility Wind Dir Wind Speed Gust Speed Precip Events Conditions
12:53 AM 30.9 °F 25.2 °F 19.0 °F 61% 30.09 in 10.0 mi East 5.8 mph - N/A   Clear
1:53 AM 30.9 °F 24.3 °F 19.0 °F 61% 30.07 in 10.0 mi East 6.9 mph - N/A   Clear
2:53 AM 30.9 °F 25.2 °F 19.0 °F 61% 30.05 in 10.0 mi East 5.8 mph - N/A   Clear
3:53 AM 32.0 °F 26.4 °F 19.9 °F 61% 30.01 in 10.0 mi ENE 5.8 mph - N/A   Clear
4:53 AM 33.1 °F 26.1 °F 19.9 °F 59% 29.98 in 10.0 mi East 8.1 mph - N/A   Clear
5:53 AM 33.1 °F 26.1 °F 19.9 °F 59% 29.99 in 10.0 mi East 8.1 mph - N/A   Clear
6:53 AM 34.0 °F 26.6 °F 19.9 °F 56% 29.96 in 10.0 mi East 9.2 mph - N/A   Clear
7:53 AM 35.1 °F 27.4 °F 19.9 °F 54% 29.96 in 10.0 mi ESE 10.4 mph - N/A   Clear
8:53 AM 37.0 °F 28.9 °F 21.0 °F 52% 29.94 in 10.0 mi East 12.7 mph 19.6 mph N/A   Partly Cloudy
9:53 AM 39.0 °F 31.4 °F 21.9 °F 50% 29.93 in 10.0 mi ESE 12.7 mph - N/A   Overcast
10:53 AM 39.0 °F 30.3 °F 23.0 °F 53% 29.93 in 10.0 mi ESE 16.1 mph 24.2 mph 0.00 in Rain Light Rain
11:53 AM 37.0 °F 28.1 °F 28.9 °F 73% 29.91 in 5.0 mi ESE 15.0 mph 24.2 mph 0.02 in Rain Light Rain
12:53 PM 35.1 °F 24.8 °F 28.9 °F 78% 29.88 in 5.0 mi ESE 17.3 mph 24.2 mph 0.03 in Rain Light Rain
1:53 PM 34.0 °F 24.6 °F 30.0 °F 85% 29.82 in 5.0 mi East 13.8 mph 21.9 mph 0.05 in Rain Light Rain
2:53 PM 34.0 °F 25.5 °F 32.0 °F 92% 29.77 in 5.0 mi East 11.5 mph - 0.09 in Rain Light Rain
3:47 PM 35.6 °F 27.1 °F 33.8 °F 93% 29.67 in 1.5 mi East 12.7 mph - 0.21 in Rain Heavy Rain
3:53 PM 35.1 °F 26.9 °F 34.0 °F 96% 29.73 in 1.5 mi East 11.5 mph - 0.23 in Rain Rain
3:58 PM 35.6 °F 25.2 °F 33.8 °F 93% 29.67 in 3.0 mi East 18.4 mph - 0.00 in Rain Light Rain
4:23 PM 35.6 °F 26.2 °F 33.8 °F 93% 29.67 in 9.0 mi East 15.0 mph 18.4 mph 0.01 in Rain Light Rain
4:53 PM 37.0 °F 31.0 °F 34.0 °F 89% 29.70 in 10.0 mi East 8.1 mph - 0.01 in Rain Light Rain
5:43 PM 37.4 °F 31.4 °F 35.6 °F 93% 29.63 in 6.0 mi ENE 8.1 mph 17.3 mph 0.03 in Rain Light Rain
5:53 PM 37.0 °F 28.9 °F 35.1 °F 93% 29.66 in 10.0 mi East 12.7 mph 17.3 mph 0.03 in Rain Light Rain
6:16 PM 37.4 °F 33.8 °F 35.6 °F 93% 29.67 in 3.0 mi SE 4.6 mph - 0.06 in Rain Rain
6:53 PM 35.1 °F 29.3 °F 34.0 °F 96% 29.69 in 5.0 mi East 6.9 mph - 0.16 in Rain Light Rain
7:23 PM 35.6 °F 28.0 °F 33.8 °F 93% 29.65 in 5.0 mi East 10.4 mph - 0.06 in Rain Light Rain
7:50 PM 35.6 °F 30.7 °F 35.6 °F 100% 29.65 in 6.0 mi ESE 5.8 mph - 0.09 in Rain Light Rain
7:53 PM 36.0 °F 31.1 °F 35.1 °F 97% 29.68 in 5.0 mi ESE 5.8 mph - 0.09 in Rain Light Rain
8:13 PM 35.6 °F 28.6 °F 35.6 °F 100% 29.63 in 7.0 mi East 9.2 mph - 0.01 in Rain Light Rain
8:21 PM 35.6 °F 28.0 °F 35.6 °F 100% 29.63 in 10.0 mi East 10.4 mph - 0.02 in Rain Light Rain
8:38 PM 35.6 °F 27.1 °F 33.8 °F 93% 29.62 in 10.0 mi East 12.7 mph - 0.02 in Rain Light Rain
8:53 PM 36.0 °F 27.5 °F 34.0 °F 93% 29.65 in 10.0 mi East 12.7 mph - 0.02 in Rain Light Rain
9:53 PM 37.0 °F 29.3 °F 34.0 °F 89% 29.62 in 10.0 mi ESE 11.5 mph - 0.00 in   Overcast
10:53 PM 39.0 °F 32.3 °F 34.0 °F 82% 29.60 in 9.0 mi ESE 10.4 mph - 0.00 in Rain Light Rain
11:53 PM 39.9 °F 32.9 °F 35.1 °F 83% 29.59 in 10.0 mi SE 11.5 mph 19.6 mph 0.02 in Rain Light Rain